When you browse on this site, cookies collect data to enhance your experience and personalize the content and advertising you see.
Visit our Privacy Policy to learn more. By continuing to use the site, you agree to this use of cookies and data.
  • In United Kingdom
  • List of Countries
  • For 7 days
  • Water Temperature
  • Satellite Maps
  • Weather Map
  • Weather Widgets
  • user-avatar
    Login

    Hourly Weather Zareche (Signevichi)

    Today, 23 April, Tuesday

    Time Temperature Precipitation Wind Pressure Humidity
    00:00 +8°C° 0 mm 2 mps 757 mmHg 59%
    01:00 +8°C° 0 mm 2 mps 757 mmHg 60%
    02:00 +7°C° 0 mm 2 mps 757 mmHg 60%
    03:00 +7°C° 0 mm 2 mps 757 mmHg 61%
    04:00 +7°C° 0 mm 3 mps 757 mmHg 62%
    05:00 +5°C° 0 mm 3 mps 757 mmHg 63%
    06:00 +8°C° 0 mm 3 mps 757 mmHg 61%
    07:00 +10°C° 0 mm 4 mps 757 mmHg 59%
    08:00 +11°C° 0 mm 4 mps 758 mmHg 56%
    09:00 +13°C° 0 mm 5 mps 758 mmHg 49%
    10:00 +15°C° 0 mm 6 mps 758 mmHg 42%
    11:00 +16°C° 0 mm 7 mps 758 mmHg 35%
    12:00 +17°C° 0 mm 7 mps 758 mmHg 35%
    13:00 +17°C° 0 mm 7 mps 757 mmHg 34%
    14:00 +18°C° 0 mm 7 mps 757 mmHg 34%
    15:00 +17°C° 0 mm 6 mps 757 mmHg 36%
    16:00 +17°C° 0 mm 6 mps 756 mmHg 38%
    17:00 +17°C° 0 mm 5 mps 756 mmHg 40%
    18:00 +15°C° 0 mm 5 mps 756 mmHg 44%
    19:00 +14°C° 0 mm 5 mps 756 mmHg 48%
    20:00 +12°C° 0 mm 4 mps 756 mmHg 53%
    21:00 +11°C° 0 mm 4 mps 756 mmHg 53%
    22:00 +11°C° 0 mm 4 mps 756 mmHg 54%
    23:00 +10°C° 0 mm 4 mps 756 mmHg 54%

    Tomorrow, 24 April, Wednesday

    Time Temperature Precipitation Wind Pressure Humidity
    00:00 +10°C° 0 mm 4 mps 756 mmHg 57%
    01:00 +8°C° 0 mm 4 mps 756 mmHg 59%
    02:00 +8°C° 0 mm 4 mps 756 mmHg 61%
    03:00 +8°C° 0 mm 5 mps 756 mmHg 61%
    04:00 +7°C° 0 mm 5 mps 756 mmHg 62%
    05:00 +7°C° 0 mm 5 mps 756 mmHg 63%
    06:00 +8°C° 0 mm 6 mps 756 mmHg 60%
    07:00 +10°C° 0 mm 6 mps 756 mmHg 56%
    08:00 +11°C° 0 mm 7 mps 756 mmHg 53%
    09:00 +12°C° 0 mm 8 mps 756 mmHg 49%
    10:00 +15°C° 0 mm 8 mps 756 mmHg 46%
    11:00 +16°C° 0 mm 9 mps 756 mmHg 42%
    12:00 +17°C° 0 mm 9 mps 756 mmHg 40%
    13:00 +18°C° 0 mm 9 mps 755 mmHg 38%
    14:00 +18°C° 0 mm 9 mps 755 mmHg 36%
    15:00 +18°C° 0 mm 8 mps 755 mmHg 39%
    16:00 +17°C° 0 mm 7 mps 755 mmHg 42%
    17:00 +17°C° 0 mm 6 mps 754 mmHg 44%
    18:00 +16°C° 0 mm 5 mps 754 mmHg 47%
    19:00 +14°C° 0 mm 5 mps 754 mmHg 50%
    20:00 +13°C° 0 mm 5 mps 754 mmHg 53%
    21:00 +12°C° 0 mm 5 mps 754 mmHg 54%
    22:00 +12°C° 0 mm 5 mps 755 mmHg 55%
    23:00 +10°C° 0 mm 5 mps 755 mmHg 56%

    Day after tomorrow, 25 April, Thursday

    Time Temperature Precipitation Wind Pressure Humidity
    00:00 +10°C° 0 mm 5 mps 754 mmHg 57%
    01:00 +10°C° 0 mm 5 mps 754 mmHg 58%
    02:00 +9°C° 0 mm 5 mps 754 mmHg 59%
    03:00 +9°C° 0 mm 5 mps 754 mmHg 60%
    04:00 +9°C° 0 mm 5 mps 754 mmHg 61%
    05:00 +9°C° 0 mm 5 mps 754 mmHg 62%
    06:00 +10°C° 0 mm 6 mps 754 mmHg 62%
    07:00 +10°C° 0 mm 6 mps 754 mmHg 62%
    08:00 +11°C° 0 mm 6 mps 754 mmHg 63%
    09:00 +14°C° 0 mm 6 mps 754 mmHg 60%
    10:00 +15°C° 0 mm 7 mps 754 mmHg 57%
    11:00 +17°C° 0 mm 7 mps 754 mmHg 54%
    12:00 +19°C° 0 mm 6 mps 753 mmHg 52%
    13:00 +20°C° 0 mm 6 mps 753 mmHg 51%
    14:00 +21°C° 0 mm 6 mps 753 mmHg 49%
    15:00 +21°C° 0 mm 5 mps 753 mmHg 50%
    16:00 +20°C° 0 mm 5 mps 752 mmHg 52%
    17:00 +20°C° 0 mm 4 mps 752 mmHg 53%
    18:00 +19°C° 0 mm 4 mps 752 mmHg 57%
    19:00 +17°C° 0 mm 4 mps 752 mmHg 60%
    20:00 +15°C° 0 mm 4 mps 752 mmHg 64%
    21:00 +14°C° 0 mm 4 mps 752 mmHg 65%
    22:00 +13°C° 0 mm 4 mps 752 mmHg 66%
    23:00 +13°C° 0 mm 4 mps 752 mmHg 66%

    26 April, Friday

    Time Temperature Precipitation Wind Pressure Humidity
    00:00 +12°C° 0 mm 4 mps 751 mmHg 69%
    01:00 +12°C° 0 mm 4 mps 751 mmHg 71%
    02:00 +11°C° 0 mm 4 mps 751 mmHg 74%
    03:00 +11°C° 0 mm 4 mps 751 mmHg 76%
    04:00 +10°C° 0 mm 4 mps 751 mmHg 78%
    05:00 +10°C° 0 mm 3 mps 751 mmHg 80%
    06:00 +11°C° 0 mm 4 mps 750 mmHg 77%
    07:00 +12°C° 0 mm 4 mps 750 mmHg 74%
    08:00 +13°C° 0 mm 4 mps 750 mmHg 72%
    09:00 +15°C° 0 mm 5 mps 750 mmHg 69%
    10:00 +17°C° 0 mm 5 mps 749 mmHg 65%
    11:00 +20°C° 0 mm 5 mps 749 mmHg 62%
    12:00 +21°C° 0.1 mm 5 mps 749 mmHg 60%
    13:00 +23°C° 0.1 mm 5 mps 748 mmHg 58%
    14:00 +25°C° 0.1 mm 5 mps 748 mmHg 56%
    15:00 +25°C° 0.5 mm 5 mps 747 mmHg 58%
    16:00 +23°C° 0.5 mm 5 mps 747 mmHg 59%
    17:00 +23°C° 0.5 mm 5 mps 747 mmHg 61%
    18:00 +22°C° 0.4 mm 4 mps 746 mmHg 66%
    19:00 +20°C° 0.4 mm 4 mps 746 mmHg 72%
    20:00 +19°C° 0.4 mm 4 mps 746 mmHg 77%
    21:00 +18°C° 0.3 mm 4 mps 746 mmHg 80%
    22:00 +17°C° 0.3 mm 4 mps 745 mmHg 83%
    23:00 +17°C° 0.3 mm 4 mps 745 mmHg 85%

    27 April, Saturday

    Time Temperature Precipitation Wind Pressure Humidity
    00:00 +15°C° 0.1 mm 4 mps 745 mmHg 88%
    01:00 +15°C° 0.1 mm 4 mps 745 mmHg 91%
    02:00 +14°C° 0.1 mm 3 mps 744 mmHg 94%
    03:00 +14°C° 0.2 mm 3 mps 744 mmHg 95%
    04:00 +14°C° 0.2 mm 3 mps 744 mmHg 96%
    05:00 +13°C° 0.2 mm 3 mps 744 mmHg 96%
    06:00 +16°C° 0.1 mm 3 mps 744 mmHg 92%
    07:00 +17°C° 0.1 mm 4 mps 744 mmHg 88%
    08:00 +18°C° 0.1 mm 4 mps 744 mmHg 84%
    09:00 +20°C° 0 mm 4 mps 744 mmHg 77%
    10:00 +22°C° 0 mm 4 mps 744 mmHg 69%
    11:00 +23°C° 0 mm 4 mps 744 mmHg 61%
    12:00 +25°C° 0 mm 5 mps 743 mmHg 57%
    13:00 +26°C° 0 mm 5 mps 743 mmHg 52%
    14:00 +27°C° 0 mm 5 mps 743 mmHg 47%
    15:00 +26°C° 0 mm 5 mps 743 mmHg 50%
    16:00 +25°C° 0 mm 5 mps 743 mmHg 53%
    17:00 +23°C° 0 mm 4 mps 743 mmHg 56%
    18:00 +22°C° 0 mm 4 mps 743 mmHg 62%
    19:00 +20°C° 0 mm 4 mps 743 mmHg 67%
    20:00 +18°C° 0 mm 4 mps 743 mmHg 73%
    21:00 +17°C° 0 mm 4 mps 743 mmHg 77%
    22:00 +16°C° 0 mm 3 mps 744 mmHg 81%
    23:00 +14°C° 0 mm 3 mps 744 mmHg 86%

    28 April, Sunday

    Time Temperature Precipitation Wind Pressure Humidity
    00:00 +13°C° 0 mm 3 mps 744 mmHg 87%
    01:00 +12°C° 0 mm 3 mps 744 mmHg 88%
    02:00 +11°C° 0 mm 3 mps 745 mmHg 89%
    03:00 +11°C° 0 mm 4 mps 745 mmHg 88%
    04:00 +10°C° 0 mm 4 mps 745 mmHg 86%
    05:00 +10°C° 0 mm 4 mps 745 mmHg 85%
    06:00 +10°C° 0 mm 4 mps 746 mmHg 83%
    07:00 +11°C° 0 mm 4 mps 746 mmHg 80%
    08:00 +11°C° 0 mm 4 mps 747 mmHg 77%
    09:00 +13°C° 0 mm 4 mps 747 mmHg 72%
    10:00 +14°C° 0 mm 4 mps 747 mmHg 67%
    11:00 +17°C° 0 mm 4 mps 748 mmHg 62%
    12:00 +17°C° 0 mm 4 mps 748 mmHg 61%
    13:00 +17°C° 0 mm 4 mps 748 mmHg 60%
    14:00 +18°C° 0 mm 4 mps 748 mmHg 59%
    15:00 +17°C° 0 mm 3 mps 748 mmHg 61%
    16:00 +17°C° 0 mm 3 mps 748 mmHg 63%
    17:00 +16°C° 0 mm 3 mps 748 mmHg 66%
    18:00 +14°C° 0 mm 3 mps 748 mmHg 70%
    19:00 +13°C° 0 mm 3 mps 748 mmHg 74%
    20:00 +12°C° 0 mm 3 mps 749 mmHg 78%
    21:00 +12°C° 0 mm 2 mps 749 mmHg 81%
    22:00 +10°C° 0 mm 2 mps 749 mmHg 84%
    23:00 +9°C° 0 mm 2 mps 749 mmHg 87%
    Show more